When you browse on this site, cookies collect data to enhance your experience and personalize the content and advertising you see.
Visit our Privacy Policy to learn more. By continuing to use the site, you agree to this use of cookies and data.

Hourly Weather Mendoza

Today, 15 August, Saturday

Time Temperature Precipitation Wind Pressure Humidity
00:00 +8°C° 0 mm 1 mps 696 mmHg 26%
01:00 +7°C° 0 mm 1 mps 696 mmHg 25%
02:00 +7°C° 0 mm 1 mps 695 mmHg 25%
03:00 +6°C° 0 mm 1 mps 695 mmHg 24%
04:00 +5°C° 0 mm 0 mps 695 mmHg 24%
05:00 +5°C° 0 mm 0 mps 695 mmHg 23%
06:00 +7°C° 0 mm 1 mps 695 mmHg 23%
07:00 +8°C° 0 mm 1 mps 695 mmHg 22%
08:00 +10°C° 0 mm 1 mps 696 mmHg 20%
09:00 +12°C° 0 mm 2 mps 696 mmHg 17%
10:00 +14°C° 0 mm 2 mps 697 mmHg 15%
11:00 +15°C° 0 mm 2 mps 697 mmHg 16%
12:00 +15°C° 0 mm 2 mps 697 mmHg 16%
13:00 +16°C° 0 mm 1 mps 696 mmHg 16%
14:00 +16°C° 0 mm 1 mps 697 mmHg 16%
15:00 +16°C° 0 mm 1 mps 697 mmHg 16%
16:00 +16°C° 0 mm 1 mps 697 mmHg 16%
17:00 +15°C° 0 mm 1 mps 697 mmHg 18%
18:00 +13°C° 0 mm 1 mps 697 mmHg 21%
19:00 +12°C° 0 mm 1 mps 698 mmHg 23%
20:00 +11°C° 0 mm 1 mps 698 mmHg 24%
21:00 +11°C° 0 mm 1 mps 698 mmHg 25%
22:00 +9°C° 0 mm 2 mps 698 mmHg 26%
23:00 +9°C° 0 mm 1 mps 698 mmHg 26%

Tomorrow, 16 August, Sunday

Time Temperature Precipitation Wind Pressure Humidity
00:00 +8°C° 0 mm 1 mps 697 mmHg 26%
01:00 +8°C° 0 mm 1 mps 697 mmHg 27%
02:00 +7°C° 0 mm 1 mps 697 mmHg 26%
03:00 +7°C° 0 mm 1 mps 696 mmHg 26%
04:00 +7°C° 0 mm 1 mps 696 mmHg 25%
05:00 +7°C° 0 mm 1 mps 696 mmHg 25%
06:00 +8°C° 0 mm 1 mps 696 mmHg 25%
07:00 +8°C° 0 mm 1 mps 696 mmHg 25%
08:00 +10°C° 0 mm 1 mps 696 mmHg 22%
09:00 +12°C° 0 mm 1 mps 696 mmHg 19%
10:00 +14°C° 0 mm 1 mps 696 mmHg 16%
11:00 +15°C° 0 mm 1 mps 696 mmHg 16%
12:00 +16°C° 0 mm 1 mps 696 mmHg 15%
13:00 +18°C° 0 mm 1 mps 696 mmHg 15%
14:00 +18°C° 0 mm 1 mps 696 mmHg 14%
15:00 +19°C° 0 mm 1 mps 696 mmHg 14%
16:00 +19°C° 0 mm 1 mps 695 mmHg 14%
17:00 +16°C° 0 mm 1 mps 696 mmHg 16%
18:00 +15°C° 0 mm 1 mps 696 mmHg 19%
19:00 +13°C° 0 mm 1 mps 696 mmHg 22%
20:00 +12°C° 0 mm 1 mps 696 mmHg 22%
21:00 +12°C° 0 mm 1 mps 696 mmHg 22%
22:00 +11°C° 0 mm 1 mps 696 mmHg 22%
23:00 +11°C° 0 mm 1 mps 696 mmHg 22%

Day after tomorrow, 17 August, Monday

Time Temperature Precipitation Wind Pressure Humidity
00:00 +11°C° 0 mm 1 mps 696 mmHg 22%
01:00 +10°C° 0 mm 1 mps 696 mmHg 21%
02:00 +10°C° 0 mm 1 mps 696 mmHg 22%
03:00 +9°C° 0 mm 1 mps 695 mmHg 23%
04:00 +8°C° 0 mm 1 mps 695 mmHg 24%
05:00 +9°C° 0 mm 1 mps 695 mmHg 24%
06:00 +9°C° 0 mm 1 mps 695 mmHg 24%
07:00 +10°C° 0 mm 1 mps 695 mmHg 24%
08:00 +12°C° 0 mm 1 mps 695 mmHg 21%
09:00 +14°C° 0 mm 2 mps 695 mmHg 18%
10:00 +17°C° 0 mm 2 mps 695 mmHg 15%
11:00 +18°C° 0 mm 2 mps 695 mmHg 14%
12:00 +19°C° 0 mm 2 mps 694 mmHg 14%
13:00 +20°C° 0 mm 3 mps 693 mmHg 13%
14:00 +20°C° 0 mm 3 mps 693 mmHg 13%
15:00 +20°C° 0 mm 2 mps 693 mmHg 13%
16:00 +20°C° 0 mm 2 mps 692 mmHg 13%
17:00 +20°C° 0 mm 1 mps 692 mmHg 16%
18:00 +18°C° 0 mm 1 mps 692 mmHg 19%
19:00 +15°C° 0 mm 1 mps 692 mmHg 23%
20:00 +14°C° 0 mm 1 mps 692 mmHg 23%
21:00 +14°C° 0 mm 1 mps 692 mmHg 23%
22:00 +13°C° 0 mm 1 mps 692 mmHg 24%
23:00 +13°C° 0 mm 1 mps 691 mmHg 25%

18 August, Tuesday

Time Temperature Precipitation Wind Pressure Humidity
00:00 +12°C° 0 mm 2 mps 691 mmHg 26%
01:00 +12°C° 0 mm 2 mps 691 mmHg 27%
02:00 +10°C° 0 mm 2 mps 691 mmHg 26%
03:00 +10°C° 0 mm 2 mps 691 mmHg 25%
04:00 +10°C° 0 mm 2 mps 690 mmHg 24%
05:00 +10°C° 0 mm 3 mps 691 mmHg 27%
06:00 +9°C° 0 mm 3 mps 691 mmHg 30%
07:00 +9°C° 0 mm 3 mps 692 mmHg 33%
08:00 +9°C° 0 mm 5 mps 692 mmHg 33%
09:00 +10°C° 0 mm 7 mps 693 mmHg 32%
10:00 +12°C° 0 mm 9 mps 693 mmHg 32%
11:00 +12°C° 0 mm 8 mps 693 mmHg 33%
12:00 +12°C° 0 mm 7 mps 693 mmHg 34%
13:00 +13°C° 0 mm 5 mps 693 mmHg 35%
14:00 +11°C° 0 mm 6 mps 694 mmHg 38%
15:00 +10°C° 0 mm 6 mps 694 mmHg 42%
16:00 +9°C° 0 mm 7 mps 694 mmHg 46%
17:00 +8°C° 0.1 mm 6 mps 695 mmHg 49%
18:00 +7°C° 0.1 mm 5 mps 697 mmHg 53%
19:00 +6°C° 0.1 mm 5 mps 698 mmHg 57%
20:00 +5°C° 0.6 mm 5 mps 698 mmHg 66%
21:00 +2°C° 0.6 mm 5 mps 699 mmHg 75%
22:00 0°C° 0.6 mm 5 mps 700 mmHg 84%
23:00 0°C° 0.6 mm 4 mps 700 mmHg 86%

19 August, Wednesday

Time Temperature Precipitation Wind Pressure Humidity
00:00 0°C° 0.6 mm 4 mps 701 mmHg 87%
01:00 -1°C° 0.6 mm 4 mps 701 mmHg 89%
02:00 0°C° 0.2 mm 4 mps 701 mmHg 84%
03:00 0°C° 0.2 mm 4 mps 702 mmHg 80%
04:00 0°C° 0.2 mm 4 mps 702 mmHg 76%
05:00 0°C° 0.1 mm 4 mps 703 mmHg 71%
06:00 0°C° 0.1 mm 4 mps 703 mmHg 66%
07:00 0°C° 0.1 mm 4 mps 704 mmHg 61%
08:00 +1°C° 0 mm 4 mps 704 mmHg 59%
09:00 +1°C° 0 mm 4 mps 704 mmHg 57%
10:00 +3°C° 0 mm 4 mps 705 mmHg 55%
11:00 +3°C° 0.1 mm 4 mps 704 mmHg 54%
12:00 +4°C° 0.1 mm 4 mps 704 mmHg 52%
13:00 +4°C° 0.1 mm 4 mps 703 mmHg 51%
14:00 +4°C° 0.1 mm 3 mps 703 mmHg 50%
15:00 +4°C° 0.1 mm 3 mps 704 mmHg 49%
16:00 +4°C° 0.1 mm 3 mps 704 mmHg 48%
17:00 +5°C° 0.1 mm 2 mps 704 mmHg 50%
18:00 +4°C° 0.1 mm 2 mps 705 mmHg 52%
19:00 +3°C° 0.1 mm 2 mps 706 mmHg 55%
20:00 +3°C° 0 mm 2 mps 706 mmHg 55%
21:00 +4°C° 0 mm 1 mps 706 mmHg 56%
22:00 +3°C° 0 mm 1 mps 707 mmHg 57%
23:00 +3°C° 0 mm 1 mps 706 mmHg 57%

20 August, Thursday

Time Temperature Precipitation Wind Pressure Humidity
00:00 +2°C° 0 mm 1 mps 706 mmHg 58%
01:00 +2°C° 0 mm 1 mps 706 mmHg 58%
02:00 +1°C° 0 mm 1 mps 706 mmHg 57%
03:00 +1°C° 0 mm 1 mps 705 mmHg 57%
04:00 +1°C° 0 mm 1 mps 705 mmHg 56%
05:00 +1°C° 0 mm 1 mps 705 mmHg 54%
06:00 +1°C° 0 mm 1 mps 706 mmHg 51%
07:00 +1°C° 0 mm 1 mps 706 mmHg 49%
08:00 +2°C° 0 mm 2 mps 706 mmHg 47%
09:00 +3°C° 0 mm 2 mps 706 mmHg 45%
10:00 +4°C° 0 mm 2 mps 705 mmHg 43%
11:00 +5°C° 0 mm 2 mps 705 mmHg 41%
12:00 +5°C° 0 mm 3 mps 704 mmHg 40%
13:00 +7°C° 0 mm 3 mps 704 mmHg 38%
14:00 +7°C° 0 mm 3 mps 704 mmHg 37%
15:00 +7°C° 0 mm 3 mps 703 mmHg 36%
16:00 +8°C° 0 mm 3 mps 703 mmHg 35%
17:00 +7°C° 0 mm 2 mps 703 mmHg 35%
18:00 +6°C° 0 mm 2 mps 703 mmHg 34%
19:00 +5°C° 0 mm 2 mps 704 mmHg 34%
20:00 +5°C° 0 mm 2 mps 703 mmHg 33%
21:00 +4°C° 0 mm 2 mps 703 mmHg 33%
22:00 +4°C° 0 mm 2 mps 703 mmHg 32%
23:00 +4°C° 0 mm 2 mps 703 mmHg 33%
Show more